DW8065 Weather Reports


Display with metric or nautical units.
time (UTC)temp
F
wind
direction
speed
MPH
gust
MPH
rain 1hr
in
rain 24hr
in
rain mn
in
humidity
%
barometer
mb
20260904110041 61 323 0.0 0.0 0.00 0.01 0.01 92 1010.5
20260904104541 61 324 0.0 0.0 0.00 0.01 0.01 92 1010.5
20260904103040 61 324 0.0 0.0 0.00 0.01 0.01 92 1010.4
20260904101539 61 324 0.0 0.0 0.00 0.01 0.01 92 1010.4
20260904100040 61 324 0.0 0.0 0.01 0.01 0.01 92 1010.4
20260904094543 61 324 0.0 3.0 0.01 0.01 0.01 92 1010.3
20260904093039 61 348 0.0 2.0 0.01 0.01 0.01 92 1010.2
20260904091537 61 295 0.0 0.0 0.01 0.01 0.01 92 1010.2
20260904090037 61 295 0.0 0.0 0.00 0.00 0.00 92 1010.1
20260904084537 61 302 0.0 3.0 0.00 0.00 0.00 92 1010.1
20260904083042 61 281 0.0 2.0 0.00 0.00 0.00 92 1010.2
20260904081534 61 223 0.0 0.0 0.00 0.00 0.00 92 1010.1
20260904080033 61 223 0.0 0.0 0.00 0.00 0.00 92 1010.1
20260904074532 61 223 0.0 1.0 0.00 0.00 0.00 92 1010.0
20260904073029 61 224 0.0 1.0 0.00 0.00 0.00 92 1010.1
20260904071527 61 319 0.0 0.0 0.00 0.00 0.00 92 1010.3
20260904070026 62 319 0.0 1.0 0.00 0.00 0.00 92 1010.4
20260904064524 62 335 2.0 4.0 0.00 0.04 0.00 92 1010.5
20260904063026 62 341 0.0 0.0 0.00 0.04 0.00 92 1010.5
20260904061522 62 342 0.0 0.0 0.00 0.04 0.00 92 1010.5
20260904060021 62 344 0.0 0.0 0.00 0.04 0.00 92 1010.6
20260904054517 62 2 0.0 2.0 0.00 0.04 0.00 92 1010.8
20260904053019 62 341 0.0 0.0 0.00 0.04 0.00 92 1011.1
20260904051516 63 341 0.0 0.0 0.00 0.04 0.00 92 1011.2
20260904050012 63 341 0.0 0.0 0.00 0.04 0.00 92 1011.3
20260904044516 63 3 0.0 2.0 0.00 0.04 0.00 92 1011.3
20260904043013 63 359 0.0 1.0 0.00 0.04 0.00 92 1011.4
20260904041510 63 359 0.0 1.0 0.00 0.04 0.00 92 1011.5
20260904040007 63 351 0.0 3.0 0.00 0.04 0.00 92 1011.5
20260904034507 64 347 1.0 2.0 0.00 0.04 0.04 92 1011.6
20260904033100 64 26 0.0 0.0 0.00 0.04 0.04 92 1011.5
20260904031602 64 26 0.0 0.0 0.00 0.04 0.04 92 1011.6
20260904030100 64 25 0.0 0.0 0.00 0.04 0.04 92 1011.7
20260904024559 64 26 0.0 0.0 0.00 0.04 0.04 92 1011.8
20260904023102 64 25 0.0 0.0 0.00 0.04 0.04 92 1011.8
20260904021606 65 24 0.0 0.0 0.00 0.04 0.04 92 1011.6
20260904020101 64 343 0.0 0.0 0.00 0.04 0.04 92 1011.9
20260904014602 64 342 0.0 0.0 0.00 0.04 0.04 92 1011.8
20260904013055 64 342 0.0 0.0 0.00 0.04 0.04 92 1011.9
20260904011556 65 342 0.0 0.0 0.00 0.04 0.04 92 1011.8
20260904010054 65 342 0.0 0.0 0.00 0.04 0.04 92 1011.7
20260904004553 66 342 0.0 0.0 0.00 0.04 0.04 92 1011.6
20260904003052 67 347 0.0 0.0 0.00 0.04 0.04 91 1011.2
20260904001551 67 285 0.0 0.0 0.00 0.04 0.04 90 1010.9
20260904000059 68 335 0.0 0.0 0.00 0.04 0.04 90 1010.8
20260903234550 68 275 0.0 1.0 0.00 0.04 0.04 88 1010.7
20260903233054 69 281 0.0 0.0 0.00 0.04 0.04 86 1010.6
20260903231553 70 281 0.0 1.0 0.00 0.04 0.04 86 1010.7
20260903230052 71 33 4.0 12.0 0.00 0.04 0.04 84 1010.9
20260903224607 72 11 0.0 1.0 0.00 0.04 0.04 87 1010.5
20260903223044 72 293 0.0 3.0 0.00 0.04 0.04 87 1010.5
20260903221542 73 296 1.0 3.0 0.00 0.04 0.04 85 1010.6
20260903220046 74 295 0.0 1.0 0.00 0.04 0.04 84 1010.8
20260903214554 74 295 1.0 3.0 0.00 0.04 0.04 83 1011.0
20260903213041 75 304 0.0 1.0 0.00 0.04 0.04 82 1010.9
20260903211541 75 305 1.0 3.0 0.00 0.04 0.04 81 1010.9
20260903210049 74 293 0.0 3.0 0.00 0.04 0.04 82 1010.8
20260903204545 74 295 2.0 4.0 0.00 0.04 0.04 83 1010.9
20260903203039 74 293 0.0 2.0 0.00 0.04 0.04 82 1011.0
20260903201541 75 302 0.0 0.0 0.00 0.04 0.04 77 1011.1
20260903200033 75 117 0.0 2.0 0.00 0.04 0.04 79 1011.3
20260903194530 74 126 0.0 1.0 0.00 0.04 0.04 80 1011.4
20260903193025 72 317 1.0 3.0 0.00 0.04 0.04 84 1011.5
20260903191526 70 313 1.0 3.0 0.00 0.04 0.04 84 1011.7
20260903190021 70 293 3.0 5.0 0.00 0.04 0.04 84 1011.9
20260903184521 72 53 0.0 2.0 0.00 0.04 0.04 81 1012.0
20260903183016 70 327 0.0 2.0 0.00 0.04 0.04 85 1012.2
20260903181511 68 6 0.0 3.0 0.00 0.04 0.04 88 1012.4
20260903180008 67 352 1.0 3.0 0.00 0.04 0.04 88 1012.6
20260903174505 66 311 0.0 2.0 0.00 0.04 0.04 88 1012.7
20260903173100 66 303 0.0 0.0 0.00 0.04 0.04 88 1013.0
20260903171556 66 304 0.0 1.0 0.00 0.04 0.04 88 1013.0
20260903170056 65 279 0.0 1.0 0.00 0.04 0.04 88 1013.2
20260903164552 65 163 0.0 0.0 0.00 0.04 0.04 88 1013.1
20260903163051 65 192 0.0 0.0 0.00 0.04 0.04 89 1013.2
20260903161546 64 192 0.0 0.0 0.00 0.04 0.04 89 1013.3
20260903160044 64 255 0.0 1.0 0.00 0.04 0.04 91 1013.6
20260903154601 63 21 0.0 0.0 0.00 0.04 0.04 91 1013.6
20260903153039 63 27 0.0 0.0 0.00 0.04 0.04 91 1013.9
20260903151537 63 34 0.0 0.0 0.00 0.04 0.04 92 1014.2
20260903150038 62 34 0.0 3.0 0.00 0.04 0.04 92 1014.2
20260903144537 63 42 0.0 0.0 0.00 0.04 0.04 91 1014.2
20260903143044 63 42 0.0 0.0 0.00 0.04 0.04 91 1014.2
20260903141546 63 42 0.0 0.0 0.00 0.04 0.04 90 1014.5
20260903140038 63 276 0.0 0.0 0.00 0.04 0.04 90 1014.4
20260903134534 63 320 0.0 0.0 0.00 0.04 0.04 90 1014.3
20260903133035 63 319 0.0 0.0 0.00 0.04 0.04 90 1014.2
20260903131541 63 301 0.0 1.0 0.00 0.04 0.04 91 1014.2
20260903130036 62 144 0.0 3.0 0.00 0.04 0.04 91 1014.3
20260903124536 62 328 0.0 3.0 0.00 0.04 0.04 92 1014.4
20260903123034 61 283 0.0 1.0 0.00 0.04 0.04 92 1014.5
20260903121530 61 190 0.0 0.0 0.00 0.00 0.04 92 1014.7
20260903120030 61 259 0.0 2.0 0.00 0.04 0.04 92 1014.8
20260903114529 60 230 0.0 0.0 0.00 0.04 0.04 92 1014.8
20260903113030 60 230 0.0 0.0 0.00 0.04 0.04 92 1014.9
20260903111537 60 229 0.0 0.0 0.00 0.04 0.04 92 1014.8